User: anonymous   Login
Location: Caltech
(34.1382°N, 118.1253°W)
Time: 05:14:25
(UTC-08:00)
Language:

Cosmos 1606 - Orbit

View from above orbital plane
View from above orbital plane
View from above satellite
View from above satellite

Ground track
Ground track

The orbit data is extracted from the following two-line orbital elements,

1 15369U 84111A   15031.16523814  .00005444  00000-0  31280-3 0  7328
2 15369 082.5274 254.8305 0020284 027.0543 333.1740 15.12132160649088
Epoch (UTC): 31 January 2015 03:57:56
Eccentricity: 0.0020284
inclination: 82.5274°
perigee height: 515 km
apogee height: 544 km
right ascension of ascending node: 254.8305°
argument of perigee: 27.0543°
revolutions per day: 15.12132160
mean anomaly at epoch: 333.1740°
orbit number at epoch: 64908

The dashed part of the orbit path shows where the satellite is in the earth's shadow,  

DLR